Flag for United Kingdom

Past Weather in Gloucester, England, United Kingdom — Yesterday and Last 2 Weeks

Now
54 °F

Dense fog.


Feels Like: 54 °F
Forecast: 71 / 55 °F
Wind: No wind

Location: Staverton Private
Current Time: Sep 21, 2020 at 8:45:24 am
Latest Report: Sep 21, 2020 at 7:50 am
Visibility: 0 mi
Pressure30.09 "Hg
Humidity: 94%
Dew Point: 52 °F
Location of GloucesterLocation

Past Weather in Gloucester — Graph

°F

Gloucester Temperature Yesterday

Maximum temperature yesterday: 70 °F (at 2:20 pm)
Minimum temperature yesterday: 59 °F (at 8:50 am)
Average temperature yesterday: 66 °F

High & Low Weather Summary for the Past Weeks

 TemperatureHumidityPressure
High82 °F (Sep 14, 2:50 pm)100% (Sep 14, 8:50 am)30.42 "Hg (Sep 14, 8:50 am)
Low48 °F (Sep 18, 7:50 am)30% (Sep 14, 4:50 pm)29.95 "Hg (Sep 11, 6:20 pm)
Average66 °F69%30.16 "Hg
* Reported Sep 5 6:20 pm — Sep 20 5:50 pm, Gloucester. Weather by CustomWeather, © 2020

Note: Actual official high and low records may vary slightly from our data, if they occured in-between our weather recording intervals... More about our weather records

Gloucester Weather History for the Previous 24 Hours

Scroll right to see more
 ConditionsComfort  
Time TempWeatherWind HumidityBarometerVisibility
5:50 pm
Sun, Sep 20
70 °FSunny.8 mph57%30.09 "Hg10 mi
5:20 pm70 °FSunny.12 mph57%30.09 "Hg10 mi
4:50 pm70 °FSunny.10 mph60%30.09 "Hg10 mi
4:20 pm70 °FSunny.10 mph57%30.09 "Hg10 mi
3:50 pm70 °FSunny.9 mph57%30.09 "Hg10 mi
3:20 pm70 °FPassing clouds.10 mph57%30.09 "HgN/A
2:50 pm70 °FSunny.12 mph60%30.09 "Hg10 mi
2:20 pm70 °FSunny.12 mph60%30.09 "Hg10 mi
1:50 pm68 °FSunny.14 mph64%30.12 "Hg10 mi
12:50 pm68 °FPassing clouds.12 mph60%30.12 "HgN/A
12:20 pm66 °FPassing clouds.10 mph68%30.12 "HgN/A
11:50 am66 °FPassing clouds.10 mph68%30.12 "HgN/A
11:20 am64 °FPassing clouds.10 mph73%30.12 "HgN/A
10:50 am63 °FScattered clouds.12 mph77%30.12 "HgN/A
10:20 am61 °FScattered clouds.10 mph83%30.12 "HgN/A
9:50 am61 °FBroken clouds.9 mph77%30.12 "HgN/A
9:20 am59 °FBroken clouds.10 mph82%30.12 "HgN/A
8:50 am59 °FPartly sunny.10 mph82%30.12 "HgN/A
Weather by CustomWeather, © 2020

See weather overview